TimeCET,TemperatureF,Dew PointF,Humidity,Sea Level PressureIn,VisibilityMPH,Wind Direction,Wind SpeedMPH,Gust SpeedMPH,PrecipitationIn,Events,Conditions,WindDirDegrees,DateUTC
12:15 AM,46.4,44.6,93,30.06,2.5,NNW,2.2,-,N/A,,Mostly Cloudy,330,2012-11-18 23:15:00
12:45 AM,46.4,44.6,93,30.06,2.5,NNW,2.2,-,N/A,,Mostly Cloudy,330,2012-11-18 23:45:00
1:15 AM,46.4,44.6,93,30.06,2.5,NNW,2.2,-,N/A,,Mostly Cloudy,340,2012-11-19 00:15:00
1:45 AM,46.4,44.6,93,30.06,2.5,Calm,Calm,-,N/A,,Mostly Cloudy,0,2012-11-19 00:45:00
2:11 AM,46.4,44.6,93,30.06,1.9,Calm,Calm,-,N/A,,Mostly Cloudy,0,2012-11-19 01:11:00
2:15 AM,46.4,44.6,93,30.06,1.9,Calm,Calm,-,N/A,,Mostly Cloudy,0,2012-11-19 01:15:00
2:45 AM,46.4,44.6,93,30.06,1.9,NNW,2.2,-,N/A,,Mostly Cloudy,330,2012-11-19 01:45:00
3:15 AM,46.4,44.6,93,30.06,1.9,NNW,4.5,-,N/A,,Mostly Cloudy,330,2012-11-19 02:15:00
3:45 AM,46.4,44.6,93,30.06,1.2,NNW,4.5,-,N/A,,Mostly Cloudy,330,2012-11-19 02:45:00
4:15 AM,46.4,44.6,93,30.06,1.9,NNW,4.5,-,N/A,,Mostly Cloudy,340,2012-11-19 03:15:00
4:45 AM,46.4,44.6,93,30.06,1.9,North,4.5,-,N/A,,Mostly Cloudy,350,2012-11-19 03:45:00
5:15 AM,46.4,44.6,93,30.09,1.9,North,2.2,-,N/A,,Mostly Cloudy,360,2012-11-19 04:15:00
5:45 AM,-9999,-9999,N/A,-9999,3.1,Variable,4.5,-,N/A,,Overcast,0,2012-11-19 04:45:00
6:15 AM,46.4,44.6,93,30.09,1.9,North,2.2,-,N/A,,Mostly Cloudy,360,2012-11-19 05:15:00
6:45 AM,46.4,44.6,93,30.09,1.9,North,2.2,-,N/A,,Mostly Cloudy,10,2012-11-19 05:45:00
7:15 AM,46.4,44.6,93,30.09,1.9,NNW,2.2,-,N/A,,Mostly Cloudy,330,2012-11-19 06:15:00
7:45 AM,46.4,46.4,100,30.09,1.9,NNW,2.2,-,N/A,,Mostly Cloudy,340,2012-11-19 06:45:00
8:15 AM,46.4,44.6,93,30.09,1.9,North,2.2,-,N/A,,Mostly Cloudy,10,2012-11-19 07:15:00
8:45 AM,-9999,-9999,N/A,-9999,3.1,Variable,4.5,-,N/A,,Mostly Cloudy,0,2012-11-19 07:45:00
9:15 AM,46.4,46.4,100,30.09,1.9,North,4.5,-,N/A,,Mostly Cloudy,350,2012-11-19 08:15:00
9:45 AM,48.2,46.4,93,30.12,1.9,North,4.5,-,N/A,,Mostly Cloudy,350,2012-11-19 08:45:00
10:15 AM,48.2,46.4,93,30.12,1.9,Calm,Calm,-,N/A,,Mostly Cloudy,0,2012-11-19 09:15:00
10:45 AM,48.2,46.4,93,30.12,1.9,NNW,2.2,-,N/A,,Mostly Cloudy,340,2012-11-19 09:45:00
11:15 AM,48.2,46.4,93,30.12,2.5,NW,2.2,-,N/A,,Mostly Cloudy,310,2012-11-19 10:15:00
11:45 AM,-9999,-9999,N/A,-9999,3.1,Variable,4.5,-,N/A,,Mostly Cloudy,0,2012-11-19 10:45:00
12:15 PM,50.0,46.4,87,30.12,2.5,North,2.2,-,N/A,,Mostly Cloudy,350,2012-11-19 11:15:00
12:45 PM,50.0,46.4,87,30.09,2.5,NNW,2.2,-,N/A,,Mostly Cloudy,340,2012-11-19 11:45:00
1:15 PM,50.0,46.4,87,30.09,2.5,North,2.2,-,N/A,,Mostly Cloudy,10,2012-11-19 12:15:00
1:23 PM,50.0,46.4,87,30.09,3.1,North,2.2,-,N/A,,Mostly Cloudy,10,2012-11-19 12:23:00
1:45 PM,50.0,46.4,87,30.09,3.1,NNE,2.2,-,N/A,,Mostly Cloudy,20,2012-11-19 12:45:00
2:15 PM,50.0,44.6,82,30.09,3.7,NE,4.5,-,N/A,,Mostly Cloudy,40,2012-11-19 13:15:00
2:45 PM,-9999,-9999,N/A,-9999,3.1,Variable,4.5,-,N/A,Fog,Mostly Cloudy,0,2012-11-19 13:45:00
3:15 PM,50.0,44.6,82,30.09,3.7,ENE,4.5,-,N/A,,Unknown,60,2012-11-19 14:15:00
3:45 PM,48.2,44.6,87,30.12,3.7,NE,4.5,-,N/A,,Unknown,50,2012-11-19 14:45:00
4:15 PM,48.2,44.6,87,30.12,3.7,ENE,2.2,-,N/A,,Unknown,60,2012-11-19 15:15:00
4:45 PM,44.6,42.8,93,30.12,3.7,East,2.2,-,N/A,,Unknown,80,2012-11-19 15:45:00
5:15 PM,44.6,41.0,87,30.12,3.7,SSE,4.5,-,N/A,,Unknown,160,2012-11-19 16:15:00
5:45 PM,-9999,-9999,N/A,-9999,3.7,Variable,4.5,-,N/A,,Mostly Cloudy,0,2012-11-19 16:45:00
6:15 PM,44.6,41.0,87,30.15,3.7,South,2.2,-,N/A,,Scattered Clouds,170,2012-11-19 17:15:00
6:28 PM,42.8,41.0,93,30.15,3.1,South,2.2,-,N/A,,Scattered Clouds,190,2012-11-19 17:28:00
6:45 PM,42.8,41.0,93,30.15,3.1,SSE,2.2,-,N/A,,Partly Cloudy,160,2012-11-19 17:45:00
7:45 PM,42.8,42.8,100,30.15,3.1,SSE,2.2,-,N/A,,Partly Cloudy,160,2012-11-19 18:45:00
8:15 PM,41.0,41.0,100,30.15,3.1,South,2.2,-,N/A,,Partly Cloudy,180,2012-11-19 19:15:00
8:45 PM,-9999,-9999,N/A,-9999,1.9,Variable,4.5,-,N/A,Fog,Fog,0,2012-11-19 19:45:00
9:15 PM,37.4,37.4,100,30.15,2.2,Calm,Calm,-,N/A,,Scattered Clouds,0,2012-11-19 20:15:00
9:18 PM,37.4,37.4,100,30.15,1.2,Calm,Calm,-,N/A,,Scattered Clouds,0,2012-11-19 20:18:00
9:44 PM,37.4,37.4,100,30.15,1.9,Calm,Calm,-,N/A,,Partly Cloudy,0,2012-11-19 20:44:00
9:45 PM,37.4,37.4,100,30.15,1.9,NE,2.2,-,N/A,,Partly Cloudy,50,2012-11-19 20:45:00
10:15 PM,35.6,35.6,100,30.15,1.9,South,2.2,-,N/A,,Clear,190,2012-11-19 21:15:00
10:32 PM,35.6,35.6,100,30.15,1.2,South,2.2,-,N/A,,Clear,190,2012-11-19 21:32:00
10:45 PM,35.6,33.8,93,30.15,1.2,South,2.2,-,N/A,,Partly Cloudy,180,2012-11-19 21:45:00
11:15 PM,35.6,35.6,100,30.15,1.6,Calm,Calm,-,N/A,,Partly Cloudy,0,2012-11-19 22:15:00
11:45 PM,-9999,-9999,N/A,-9999,1.9,North,-9999.0,-,N/A,Fog,Fog,0,2012-11-19 22:45:00
11:54 PM,33.8,33.8,100,30.15,0.5,Calm,Calm,-,N/A,Fog,Fog,0,2012-11-19 22:54:00